| time (UTC) | temp F | wind direction | speed MPH | gust MPH | rain 1hr in | rain 24hr in | rain mn in | humidity % | barometer mb |
| 20260508081553 | 32 | 230 | 0.0 | 0.0 | 0.00 | 0.00 | 0.00 | 70 | 1011.2 |
| 20260508080050 | 33 | 231 | 0.0 | 0.0 | 0.00 | 0.00 | 0.00 | 69 | 1011.4 |
| 20260508074543 | 35 | 231 | 0.0 | 0.0 | 0.00 | 0.00 | 0.00 | 66 | 1011.4 |
| 20260508073042 | 35 | 230 | 0.0 | 0.0 | 0.00 | 0.00 | 0.00 | 66 | 1011.5 |
| 20260508071541 | 36 | 231 | 0.0 | 0.0 | 0.00 | 0.00 | 0.00 | 65 | 1011.7 |
| 20260508070042 | 37 | 231 | 0.0 | 0.0 | 0.00 | 0.00 | 0.00 | 64 | 1011.7 |
| 20260508064540 | 37 | 231 | 0.0 | 0.0 | 0.00 | 0.00 | 0.00 | 60 | 1011.7 |
| 20260508063040 | 39 | 231 | 0.0 | 0.0 | 0.00 | 0.00 | 0.00 | 57 | 1011.6 |
| 20260508061540 | 39 | 359 | 0.0 | 0.0 | 0.00 | 0.00 | 0.00 | 55 | 1011.7 |
| 20260508060042 | 40 | 231 | 0.0 | 0.0 | 0.00 | 0.00 | 0.00 | 56 | 1011.7 |
| 20260508054553 | 41 | 231 | 0.0 | 2.0 | 0.00 | 0.00 | 0.00 | 52 | 1011.7 |
| 20260508053040 | 42 | 231 | 0.0 | 2.0 | 0.00 | 0.00 | 0.00 | 49 | 1011.7 |
| 20260508051537 | 43 | 197 | 2.0 | 4.0 | 0.00 | 0.00 | 0.00 | 46 | 1011.7 |
| 20260508050039 | 44 | 194 | 2.0 | 5.0 | 0.00 | 0.00 | 0.00 | 46 | 1011.8 |
| 20260508044541 | 45 | 188 | 1.0 | 6.0 | 0.00 | 0.00 | 0.00 | 42 | 1011.9 |
| 20260508043036 | 46 | 186 | 0.0 | 5.0 | 0.00 | 0.00 | 0.00 | 40 | 1011.9 |
| 20260508041545 | 46 | 195 | 1.0 | 6.0 | 0.00 | 0.00 | 0.00 | 39 | 1011.9 |
| 20260508040033 | 46 | 359 | 1.0 | 5.0 | 0.00 | 0.00 | 0.00 | 39 | 1011.9 |
| 20260508034536 | 46 | 187 | 1.0 | 8.0 | 0.00 | 0.00 | 0.00 | 37 | 1012.0 |
| 20260508033037 | 47 | 228 | 4.0 | 10.0 | 0.00 | 0.00 | 0.00 | 36 | 1012.1 |
| 20260508031530 | 47 | 247 | 2.0 | 9.0 | 0.00 | 0.00 | 0.00 | 35 | 1012.2 |
| 20260508030038 | 47 | 164 | 4.0 | 12.0 | 0.00 | 0.00 | 0.00 | 34 | 1012.2 |
| 20260508024528 | 48 | 231 | 3.0 | 9.0 | 0.00 | 0.00 | 0.00 | 35 | 1012.3 |
| 20260508023037 | 48 | 262 | 6.0 | 15.0 | 0.00 | 0.00 | 0.00 | 35 | 1012.4 |
| 20260508021532 | 48 | 359 | 3.0 | 11.0 | 0.00 | 0.00 | 0.00 | 36 | 1012.4 |
| 20260508020025 | 48 | 229 | 7.0 | 13.0 | 0.00 | 0.00 | 0.00 | 35 | 1012.5 |
| 20260508014532 | 48 | 191 | 4.0 | 11.0 | 0.00 | 0.00 | 0.00 | 34 | 1012.4 |
| 20260508013024 | 48 | 185 | 4.0 | 14.0 | 0.00 | 0.00 | 0.00 | 37 | 1012.6 |
| 20260508011521 | 48 | 213 | 4.0 | 11.0 | 0.00 | 0.00 | 0.00 | 37 | 1012.6 |
| 20260508010036 | 48 | 215 | 2.0 | 7.0 | 0.00 | 0.00 | 0.00 | 36 | 1012.8 |
| 20260508004524 | 49 | 196 | 4.0 | 10.0 | 0.00 | 0.00 | 0.00 | 36 | 1012.8 |
| 20260508003022 | 50 | 193 | 7.0 | 12.0 | 0.00 | 0.00 | 0.00 | 33 | 1012.9 |
| 20260508001530 | 51 | 166 | 8.0 | 19.0 | 0.00 | 0.00 | 0.00 | 32 | 1012.9 |
| 20260508000020 | 50 | 144 | 5.0 | 18.0 | 0.00 | 0.00 | 0.00 | 35 | 1013.0 |
| 20260507234518 | 49 | 258 | 5.0 | 10.0 | 0.00 | 0.00 | 0.00 | 36 | 1013.3 |
| 20260507233014 | 49 | 208 | 3.0 | 15.0 | 0.00 | 0.00 | 0.00 | 35 | 1013.4 |
| 20260507231514 | 49 | 204 | 4.0 | 13.0 | 0.00 | 0.00 | 0.00 | 34 | 1013.3 |
| 20260507230014 | 48 | 218 | 5.0 | 12.0 | 0.00 | 0.00 | 0.00 | 36 | 1013.5 |
| 20260507224513 | 48 | 229 | 7.0 | 14.0 | 0.00 | 0.00 | 0.00 | 35 | 1013.5 |
| 20260507223013 | 48 | 243 | 7.0 | 14.0 | 0.00 | 0.00 | 0.00 | 36 | 1013.5 |
| 20260507221518 | 48 | 282 | 5.0 | 14.0 | 0.00 | 0.00 | 0.00 | 36 | 1013.5 |
| 20260507220015 | 48 | 270 | 6.0 | 13.0 | 0.00 | 0.00 | 0.00 | 37 | 1013.5 |
| 20260507214510 | 48 | 245 | 6.0 | 14.0 | 0.00 | 0.00 | 0.00 | 37 | 1013.6 |
| 20260507213022 | 48 | 237 | 8.0 | 13.0 | 0.00 | 0.00 | 0.00 | 38 | 1013.7 |
| 20260507211509 | 49 | 304 | 3.0 | 13.0 | 0.00 | 0.00 | 0.00 | 39 | 1013.7 |
| 20260507210023 | 49 | 215 | 5.0 | 13.0 | 0.00 | 0.00 | 0.00 | 38 | 1013.6 |
| 20260507204507 | 48 | 286 | 4.0 | 11.0 | 0.00 | 0.00 | 0.00 | 41 | 1013.7 |
| 20260507203058 | 49 | 359 | 9.0 | 16.0 | 0.00 | 0.00 | 0.00 | 39 | 1013.9 |
| 20260507201553 | 49 | 271 | 9.0 | 18.0 | 0.00 | 0.00 | 0.00 | 39 | 1013.9 |
| 20260507200104 | 48 | 222 | 3.0 | 13.0 | 0.00 | 0.00 | 0.00 | 42 | 1013.9 |
| 20260507194552 | 49 | 251 | 10.0 | 17.0 | 0.00 | 0.00 | 0.00 | 38 | 1014.0 |
| 20260507193110 | 48 | 222 | 7.0 | 16.0 | 0.00 | 0.00 | 0.00 | 38 | 1013.9 |
| 20260507191557 | 48 | 278 | 6.0 | 14.0 | 0.00 | 0.00 | 0.00 | 40 | 1014.0 |
| 20260507190047 | 48 | 187 | 3.0 | 12.0 | 0.00 | 0.00 | 0.00 | 41 | 1014.0 |
| 20260507184546 | 47 | 359 | 6.0 | 15.0 | 0.00 | 0.00 | 0.00 | 41 | 1014.1 |
| 20260507183056 | 47 | 359 | 5.0 | 13.0 | 0.00 | 0.00 | 0.00 | 45 | 1014.1 |
| 20260507181541 | 46 | 259 | 6.0 | 12.0 | 0.00 | 0.00 | 0.00 | 45 | 1014.2 |
| 20260507180038 | 46 | 190 | 5.0 | 10.0 | 0.00 | 0.00 | 0.00 | 49 | 1014.1 |
| 20260507174535 | 44 | 168 | 7.0 | 11.0 | 0.00 | 0.00 | 0.00 | 51 | 1014.3 |
| 20260507173031 | 43 | 186 | 3.0 | 10.0 | 0.00 | 0.00 | 0.00 | 58 | 1014.4 |
| 20260507171526 | 41 | 204 | 2.0 | 7.0 | 0.00 | 0.00 | 0.00 | 64 | 1014.5 |
| 20260507170024 | 39 | 359 | 1.0 | 3.0 | 0.00 | 0.00 | 0.00 | 74 | 1014.6 |
| 20260507164520 | 38 | 359 | 0.0 | 4.0 | 0.00 | 0.00 | 0.00 | 75 | 1014.6 |
| 20260507163017 | 37 | 152 | 2.0 | 4.0 | 0.00 | 0.00 | 0.00 | 76 | 1014.7 |
| 20260507161518 | 36 | 120 | 0.0 | 4.0 | 0.00 | 0.00 | 0.00 | 80 | 1014.8 |
| 20260507160012 | 35 | 135 | 0.0 | 3.0 | 0.00 | 0.00 | 0.00 | 84 | 1014.7 |
| 20260507154507 | 34 | 135 | 1.0 | 4.0 | 0.00 | 0.00 | 0.00 | 86 | 1014.6 |
| 20260507153015 | 32 | 135 | 0.0 | 4.0 | 0.00 | 0.00 | 0.00 | 88 | 1014.6 |
| 20260507151506 | 31 | 299 | 1.0 | 3.0 | 0.00 | 0.00 | 0.00 | 88 | 1014.6 |
| 20260507150003 | 30 | 300 | 0.0 | 2.0 | 0.00 | 0.00 | 0.00 | 89 | 1014.5 |
| 20260507144503 | 30 | 359 | 0.0 | 2.0 | 0.00 | 0.00 | 0.00 | 89 | 1014.5 |
| 20260507143001 | 30 | 299 | 0.0 | 0.0 | 0.00 | 0.00 | 0.00 | 89 | 1014.5 |
| 20260507140111 | 29 | 299 | 0.0 | 2.0 | 0.00 | 0.00 | 0.00 | 90 | 1014.5 |
| 20260507134608 | 28 | 359 | 0.0 | 0.0 | 0.00 | 0.00 | 0.00 | 90 | 1014.6 |
| 20260507133101 | 28 | 359 | 0.0 | 0.0 | 0.00 | 0.00 | 0.00 | 90 | 1014.6 |
| 20260507131557 | 28 | 299 | 0.0 | 0.0 | 0.00 | 0.00 | 0.00 | 89 | 1014.5 |
| 20260507130054 | 28 | 299 | 0.0 | 0.0 | 0.00 | 0.00 | 0.00 | 89 | 1014.5 |
| 20260507124554 | 28 | 299 | 0.0 | 0.0 | 0.00 | 0.00 | 0.00 | 89 | 1014.5 |
| 20260507123053 | 28 | 299 | 0.0 | 0.0 | 0.00 | 0.00 | 0.00 | 88 | 1014.4 |
| 20260507121550 | 28 | 299 | 0.0 | 0.0 | 0.00 | 0.00 | 0.00 | 88 | 1014.4 |
| 20260507120050 | 28 | 298 | 0.0 | 0.0 | 0.00 | 0.00 | 0.00 | 88 | 1014.4 |
| 20260507114555 | 29 | 359 | 0.0 | 0.0 | 0.00 | 0.00 | 0.00 | 88 | 1014.3 |
| 20260507113050 | 28 | 299 | 0.0 | 0.0 | 0.00 | 0.00 | 0.00 | 88 | 1014.2 |
| 20260507111556 | 28 | 299 | 0.0 | 0.0 | 0.00 | 0.00 | 0.00 | 87 | 1014.1 |
| 20260507110044 | 28 | 299 | 0.0 | 0.0 | 0.00 | 0.00 | 0.00 | 87 | 1014.1 |
| 20260507104543 | 28 | 359 | 0.0 | 0.0 | 0.00 | 0.00 | 0.00 | 87 | 1014.0 |
| 20260507103041 | 28 | 299 | 0.0 | 0.0 | 0.00 | 0.00 | 0.00 | 86 | 1013.9 |
| 20260507101542 | 28 | 359 | 0.0 | 0.0 | 0.00 | 0.00 | 0.00 | 86 | 1013.7 |
| 20260507100037 | 29 | 299 | 0.0 | 2.0 | 0.00 | 0.00 | 0.00 | 85 | 1013.5 |
| 20260507094539 | 29 | 359 | 0.0 | 0.0 | 0.00 | 0.00 | 0.00 | 84 | 1013.5 |
| 20260507093041 | 30 | 299 | 0.0 | 2.0 | 0.00 | 0.00 | 0.00 | 83 | 1013.3 |
| 20260507091532 | 30 | 299 | 0.0 | 0.0 | 0.00 | 0.00 | 0.00 | 83 | 1013.1 |
| 20260507090026 | 31 | 299 | 0.0 | 0.0 | 0.00 | 0.00 | 0.00 | 81 | 1013.0 |
| 20260507084523 | 31 | 359 | 0.0 | 0.0 | 0.00 | 0.00 | 0.00 | 80 | 1012.8 |
| 20260507083027 | 32 | 299 | 0.0 | 0.0 | 0.00 | 0.00 | 0.00 | 80 | 1012.8 |